Location: Glendale
(37.4556°N, 88.6714°W)
Time: 11:06:28
(UTC+00:00)

Cosmos 1666 - Pass Details

Date: 08 December 2019
Orbit: 498 x 521 km, 82.5° (Epoch: 25 January)

Event Time Altitude Azimuth Distance (km) Brightness Sun altitude
Rises 00:09:13 0° 354° (N) 2,603 6.2 -17.9°
Reaches altitude 10° 00:11:21 10° 355° (N) 1,712 5.2 -18.3°
Maximum altitude 00:15:06 82° 83° (E) 509 2.4 -19.0°
Drops below altitude 10° 00:18:48 10° 171° (S) 1,693 5.4 -19.8°
Sets 00:20:54 0° 172° (S) 2,571 6.3 -20.2°
